SCP
0 0 0 0 0 0 0 0 0 0 0 0 0 0 -0 -0 0 0 0 -0 -0 -0 0 0 0 0 0 0 0 0 0 0 0 0 0 0 0 0 0 0 -0 0 0 2 1
0 0 0 0 0 0 0 0 0 0 0 0 0 0 0 0 0 -0 0 -0 -0 0 0 0 0 0 0 0 0 0 0 0 0 0 0 0 0 0 0 0 0 0 3 2 1
0 0 0 0 0 0 0 0 0 0 0 0 0 0 0 0 -0 -0 0 -0 -0 0 0 0 0 0 0 0 0 0 0 0 0 0 0 0 0 0 0 0 0 0 0 2 1
0 0 0 0 0 0 0 0 0 0 0 0 0 0 0 0 0 0 0 0 0 0 0 0 0 0 0 0 0 0 0 0 0 0 0 0 0 0 0 0 0 0 0 0 0
0 0 0 0 0 0 0 0 0 0 0 0 0 0 0 0 0 0 0 0 0 0 0 0 0 0 0 0 0 0 0 0 0 0 0 0 0 0 0 0 0 0 0 0 0
0 0 0 0 0 0 0 0 0 0 0 0 0 0 0 0 0 0 0 0 0 0 0 0 0 0 0 0 0 0 0 0 0 0 0 0 0 0 0 0 0 -0 0 0 0
0 0 0 0 0 0 0 0 0 0 0 0 0 0 0 -0 0 0 0 0 0 0 0 0 0 0 0 0 0 0 0 0 0 0 0 0 0 0 0 0 0 0 0 0 0
0 0 0 0 0 0 0 0 0 0 0 0 0 0 0 0 0 0 0 0 0 0 0 0 0 0 0 0 0 0 0 0 0 0 0 0 0 0 0 0 0 0 0 0 0
0 0 0 0 0 0 0 0 0 0 0 0 0 0 0 0 0 0 0 0 0 0 0 0 0 0 0 0 0 0 0 0 0 0 0 0 0 0 0 0 0 0 0 0 0
0 0 0 0 0 0 0 0 0 0 0 0 0 0 0 0 0 0 0 0 0 0 0 0 0 0 0 0 0 0 0 0 0 0 0 0 0 0 0 0 0 0 0 0 0
0 0 0 0 0 0 0 0 0 0 0 0 0 0 0 0 0 0 0 0 0 0 0 0 0 0 0 0 0 0 0 0 0 0 0 0 0 0 0 0 0 0 0 0 0
0 0 0 0 0 0 0 0 0 0 0 0 0 0 0 0 0 0 0 0 0 0 0 0 0 0 0 0 0 0 0 0 0 -0 0 0 0 0 0 0 0 0 0 0 0
0 0 0 0 0 0 0 0 0 0 0 0 0 0 0 0 0 0 0 0 0 0 0 0 0 0 0 0 0 0 0 0 0 -0 0 0 0 0 0 0 0 0 0 0 0
0 0 0 0 0 0 0 0 0 0 0 0 0 -0 0 0 0 0 0 0 0 0 0 0 0 0 0 0 0 0 0 0 -0 0 0 -0 0 0 0 0 0 0 0 0 0
0 0 0 0 0 0 0 0 0 0 0 0 0 -0 -0 0 0 0 0 0 0 0 0 0 0 0 0 0 0 0 0 0 -0 0 0 0 0 0 0 0 0 0 0 0 0
0 0 0 0 0 0 0 0 0 0 0 0 0 0 0 0 0 0 0 0 0 0 0 0 0 0 0 0 0 0 0 0 0 0 0 0 0 0 0 0 0 -0 0 0 0
0 0 0 0 0 0 0 0 0 0 0 0 0 0 0 0 0 -0 0 0 0 0 0 0 0 0 0 0 0 0 0 0 0 0 0 0 0 0 0 0 0 0 0 0 0
0 0 0 0 0 0 0 0 0 0 0 0 -0 -0 0 0 0 0 0 0 0 0 0 0 0 0 0 0 0 0 0 0 0 0 0 0 0 0 0 0 0 0 0 0 0
0 0 0 0 -0 -0 0 0 0 0 0 0 0 -0 -0 0 0 -0 0 0 0 0 0 0 0 0 0 0 0 0 0 0 0 0 0 0 0 0 0 0 0 0 0 0 0
0 0 0 0 0 -0 0 0 0 0 -0 0 0 0 0 0 0 -0 -0 0 -0 0 0 0 0 0 0 0 0 0 0 0 0 0 0 0 0 0 0 0 0 0 0 0 0
0 0 0 0 0 -0 0 0 0 -0 -0 0 -0 0 0 0 0 0 0 0 -0 0 0 0 0 0 0 0 0 0 0 0 0 0 0 0 0 0 0 0 0 0 0 0 0
0 0 0 0 0 0 0 0 0 0 -0 -0 0 -0 0 0 0 0 0 -0 -0 -0 0 0 0 0 0 0 0 0 0 0 0 0 0 0 0 0 0 0 0 0 0 0 0
0 0 0 0 0 0 0 -0 0 -0 -0 -0 -0 0 0 0 0 0 0 0 0 0 0 0 0 0 0 0 0 0 0 0 0 0 0 0 0 0 0 0 0 0 0 0 0
0 0 0 0 0 0 0 0 -0 0 0 -0 0 -0 -0 0 0 0 0 0 -0 0 -0 0 0 0 0 0 0 0 0 0 0 0 0 0 0 0 0 0 0 0 0 0 0
0 0 0 0 0 0 -0 -0 -0 -0 0 0 -0 -0 -0 0 0 0 0 0 -0 -0 0 0 0 0 0 0 0 0 0 0 0 0 0 0 0 0 0 0 0 0 0 0 0
0 0 0 0 0 0 -0 0 -0 -0 -0 -0 -0 -0 -0 0 -0 0 0 0 0 -0 0 0 0 0 0 0 0 0 0 0 0 0 0 0 0 0 0 0 0 0 0 0 0
0 0 0 0 0 0 0 -0 -0 -0 0 -0 -0 -0 0 0 -0 -0 0 0 0 0 0 0 0 0 0 0 0 0 0 0 0 0 0 0 0 0 0 0 0 0 0 0 0
Wind_Speed_500mb
43 44 45 44 44 45 45 45 44 42 42 43 45 49 50 53 57 60 75 65 50 36 40 24 31 37 30 23 33 34 6 12 16 15 13 30 9 37 44 30 43 53 35 50 74
50 51 50 49 49 48 49 49 50 49 50 49 48 49 50 54 59 76 63 42 50 51 45 52 41 33 18 25 21 15 16 19 11 18 13 36 14 28 37 40 56 19 7 53 76
49 51 52 52 52 52 50 50 50 50 52 50 52 52 52 52 58 25 6 8 15 44 61 49 52 31 34 27 29 12 29 22 11 48 49 47 44 36 15 13 7 21 14 64 65
48 49 49 51 51 52 52 50 51 54 52 52 52 50 48 36 15 5 8 4 4 31 54 48 41 25 15 20 31 15 34 31 18 40 38 28 25 21 32 33 32 19 12 29 50
48 49 50 52 54 56 57 57 54 54 56 55 51 46 37 17 69 52 40 31 20 26 66 61 45 35 16 15 34 18 6 24 45 60 68 61 49 29 38 46 43 27 14 5 9
56 58 60 60 61 62 62 63 59 58 57 57 51 42 32 32 53 9 20 43 55 33 57 68 38 57 13 21 25 14 52 50 50 56 58 38 47 21 41 35 34 40 34 23 5
58 59 60 62 63 64 63 66 64 62 61 60 58 38 49 92 56 30 28 29 35 46 49 65 77 44 34 9 58 50 32 23 32 39 20 41 31 47 47 38 37 37 44 36 34
59 61 62 64 65 68 70 69 68 65 66 70 49 33 44 71 74 82 64 72 51 58 49 42 67 62 25 18 16 19 17 33 18 16 22 24 52 33 41 39 44 39 46 52 48
65 66 67 69 68 69 71 74 69 74 69 51 22 27 38 37 45 35 38 78 55 59 57 42 47 40 32 11 12 9 21 11 14 17 14 21 43 11 31 39 49 50 52 56 61
67 69 71 72 72 73 77 77 79 47 26 10 17 16 42 48 30 29 33 44 39 54 45 49 34 14 23 12 27 16 7 12 16 8 18 23 30 13 47 53 53 63 62 64 70
72 73 74 73 72 69 84 78 30 11 5 25 30 43 60 54 53 58 27 41 44 45 24 38 25 40 41 31 15 17 17 16 9 18 15 25 28 21 36 32 35 51 57 68 64
73 76 77 78 76 77 58 25 45 42 36 50 82 95 116 90 79 79 50 31 34 33 35 15 39 22 21 25 30 19 24 21 14 13 13 23 27 31 28 20 49 58 63 53 53
77 79 80 82 81 56 25 57 42 46 20 54 71 73 67 63 88 95 48 49 35 33 41 41 14 31 31 25 28 25 28 13 19 8 20 10 23 30 21 44 53 62 68 60 56
78 79 79 82 61 29 74 41 51 33 8 21 14 16 22 37 16 69 92 43 38 48 35 33 42 47 27 34 27 32 18 26 37 13 12 12 21 13 21 24 14 34 48 65 59
81 82 82 70 85 57 68 47 26 6 9 14 8 52 18 29 25 20 46 56 38 23 31 39 40 50 41 49 37 23 24 32 35 24 10 36 2 14 7 9 14 17 31 44 52
86 88 88 84 78 69 21 19 11 4 18 13 16 36 44 21 13 40 13 39 19 29 35 42 33 43 53 31 41 27 21 24 27 18 15 28 12 12 9 12 11 13 50 55 47
91 89 82 46 46 37 17 14 5 10 17 10 28 39 40 25 26 7 15 6 7 20 37 33 38 32 24 41 34 41 20 9 10 9 13 20 9 14 8 8 14 18 38 52 43
94 85 36 51 65 52 17 5 15 15 23 40 37 48 20 26 7 7 7 11 19 34 17 32 23 51 40 36 29 31 32 11 14 10 11 8 7 10 11 11 24 25 63 42 37
93 76 28 63 69 39 12 9 6 3 17 33 37 21 5 6 11 5 6 5 9 18 19 23 25 10 44 35 33 27 20 22 8 5 8 3 2 13 24 27 25 31 40 31 48
84 50 50 55 32 12 7 9 12 26 30 23 20 9 15 15 17 10 20 10 8 24 12 7 12 33 31 20 37 34 12 13 5 13 7 1 6 3 16 18 24 33 45 56 55
57 25 51 61 10 24 5 8 14 28 39 11 11 13 19 21 15 13 8 12 20 24 26 4 4 4 6 8 30 14 29 7 13 11 9 6 6 11 10 11 27 27 59 65 70
28 9 47 52 17 7 9 28 30 26 51 5 16 22 8 20 11 11 17 12 14 8 30 17 2 7 10 12 2 5 6 11 14 7 5 10 9 5 9 22 44 41 56 75 77
36 13 38 35 11 13 18 23 22 38 34 10 18 15 22 8 9 5 4 8 29 4 21 19 11 8 6 8 6 7 7 8 11 9 7 12 8 3 19 26 47 58 61 73 73
18 9 18 18 39 13 28 12 30 36 29 41 25 15 24 14 7 7 8 9 19 9 23 3 7 7 13 4 8 9 5 5 10 9 11 7 11 3 12 27 27 55 66 69 74
14 6 9 11 21 27 29 11 38 28 19 22 14 29 24 8 12 5 3 6 13 23 8 2 7 10 7 5 13 7 20 14 9 14 15 15 22 14 15 23 39 62 66 73 69
17 13 12 28 32 19 19 11 29 40 27 18 19 38 27 8 2 11 18 5 5 13 6 5 7 25 8 21 13 4 2 6 7 13 20 29 13 6 26 37 31 42 53 54 56
39 34 22 15 10 15 9 28 42 37 17 37 35 27 23 12 31 41 37 35 12 3 9 8 5 9 10 8 3 2 2 4 12 25 38 27 13 13 28 25 38 53 50 59 60
Wind_Direction_500mb
338 336 334 332 328 324 321 319 315 311 307 304 304 305 305 303 298 291 277 275 268 250 234 216 203 206 221 234 212 209 184 215 215 218 245 272 323 296 319 294 303 305 216 186 160
335 333 332 330 328 325 324 321 319 316 313 310 308 305 304 306 303 291 301 277 256 241 221 209 209 199 205 222 211 195 210 217 198 219 267 274 266 310 316 315 285 253 182 164 162
334 332 330 328 326 324 323 321 318 316 314 312 310 308 306 312 316 295 163 347 259 214 217 219 219 209 211 222 203 213 237 221 229 235 258 268 276 290 262 252 249 359 183 166 173
337 334 332 328 325 323 321 318 317 314 310 308 307 307 307 309 289 187 173 237 37 202 201 205 204 189 190 218 217 235 238 230 250 254 253 251 257 266 274 262 279 315 20 194 190
331 328 327 325 323 323 322 318 316 313 311 307 305 306 305 263 259 265 257 255 264 211 195 198 208 200 193 200 233 245 298 246 244 251 255 264 262 261 258 274 279 283 286 220 190
332 330 328 326 324 323 320 316 315 312 309 306 299 299 276 258 293 270 211 230 238 224 207 206 210 211 213 224 205 235 228 250 256 248 247 248 264 246 257 259 273 279 281 275 258
333 331 328 326 324 322 319 315 313 310 306 303 295 283 257 249 266 262 240 228 229 232 214 215 216 195 220 285 236 231 256 259 244 244 244 256 264 246 259 260 245 268 281 279 273
333 331 329 327 326 324 320 315 310 306 303 292 286 268 255 280 285 266 246 236 231 226 238 242 220 214 241 265 316 204 223 248 264 225 249 201 254 256 253 262 256 249 263 273 268
335 333 330 328 327 323 318 316 312 305 291 281 254 245 271 287 269 294 264 233 225 223 230 228 207 212 233 197 287 250 242 229 266 212 230 193 253 221 236 253 264 260 258 258 263
332 330 328 327 325 324 322 318 318 305 277 225 242 249 262 258 267 324 313 219 190 204 215 210 204 178 219 171 214 229 206 224 212 248 190 238 250 241 236 234 245 255 258 258 254
331 329 326 325 322 322 322 319 342 307 225 250 247 222 275 280 283 285 295 195 199 203 195 195 197 207 211 218 228 224 220 236 220 229 238 245 255 236 251 228 236 242 250 247 250
329 327 326 324 320 323 315 306 319 313 300 274 261 253 257 257 269 260 255 204 193 211 202 220 218 203 206 201 204 212 234 244 288 266 221 249 250 240 233 230 231 234 238 234 237
330 330 328 325 323 322 296 304 330 333 276 291 263 249 253 227 242 252 239 227 204 200 208 215 216 201 202 212 210 220 228 228 239 300 271 270 265 253 248 229 232 234 235 237 229
332 331 329 326 323 301 307 324 321 328 292 280 252 272 221 211 265 256 237 221 219 209 211 226 232 198 202 217 208 229 213 233 252 250 251 165 269 226 211 204 202 221 235 243 233
332 329 331 325 309 299 324 322 334 121 286 267 256 41 111 158 321 357 242 207 223 198 199 208 200 218 211 213 207 232 219 227 242 249 251 273 222 266 144 237 256 252 226 229 213
333 333 332 327 312 326 333 349 22 130 248 278 315 6 5 342 359 339 314 204 220 214 212 219 201 201 226 219 218 218 230 233 247 243 246 250 165 282 190 184 267 274 215 183 185
334 337 337 351 333 350 344 345 85 219 314 268 330 344 340 333 305 54 309 13 250 227 215 214 219 225 203 225 224 213 206 237 218 206 218 230 144 226 234 258 252 188 176 182 185
337 340 14 14 1 341 334 215 231 254 256 313 325 326 309 306 25 15 184 217 217 236 257 214 216 212 218 207 205 214 198 163 187 161 192 203 193 250 238 324 25 208 171 182 189
341 351 17 5 344 332 180 259 232 259 272 322 321 311 326 9 324 148 263 272 272 212 220 191 221 176 217 226 212 219 197 200 153 158 91 243 116 14 28 20 40 63 67 84 140
345 352 15 2 354 347 204 242 326 341 342 323 290 266 285 331 328 187 186 190 248 210 218 283 208 229 241 240 226 209 199 167 289 132 162 297 73 137 20 31 44 58 53 65 88
354 339 4 1 317 55 31 263 273 301 314 266 283 258 258 303 259 253 240 176 196 198 205 267 30 7 47 117 226 221 213 189 127 126 145 131 235 183 141 96 77 64 70 67 75
353 328 358 355 31 359 350 310 316 317 320 337 293 253 289 280 257 232 207 244 181 198 186 205 305 180 205 278 328 186 124 150 167 168 159 152 240 177 149 113 100 77 81 88 85
329 292 350 355 23 347 329 314 335 334 328 354 298 322 2 285 274 250 264 166 145 124 153 164 207 121 49 321 217 205 129 123 117 117 184 139 243 2 120 115 111 107 105 101 104
342 331 332 339 351 322 328 308 343 346 328 338 299 346 337 320 275 270 285 156 172 124 145 29 186 156 180 128 123 132 132 253 153 104 156 168 151 188 92 127 125 116 114 112 114
5 341 334 311 331 323 324 300 337 345 335 344 315 335 331 305 309 281 291 0 162 150 105 293 196 166 114 133 135 147 210 221 179 171 153 181 148 169 158 142 148 139 130 136 136
7 334 298 299 292 317 324 330 328 335 327 322 313 317 321 265 356 307 337 236 183 162 117 220 246 159 105 81 40 166 229 325 184 113 100 128 88 160 118 117 124 136 135 130 127
339 326 301 301 295 311 320 319 318 332 305 313 319 308 318 4 312 294 281 286 292 19 158 218 241 94 124 20 359 193 249 284 134 148 139 142 146 117 125 140 151 142 124 118 117
Wind_Speed_850mb
43 44 45 44 44 45 45 45 44 42 42 43 45 49 50 53 57 60 75 65 50 36 40 24 31 37 30 23 33 34 6 12 16 15 13 30 9 37 44 30 43 53 35 50 74
50 51 50 49 49 48 49 49 50 49 50 49 48 49 50 54 59 76 63 42 50 51 45 52 41 33 18 25 21 15 16 19 11 18 13 36 14 28 37 40 56 19 7 53 76
49 51 52 52 52 52 50 50 50 50 52 50 52 52 52 52 58 25 6 8 15 44 61 49 52 31 34 27 29 12 29 22 11 48 49 47 44 36 15 13 7 21 14 64 65
48 49 49 51 51 52 52 50 51 54 52 52 52 50 48 36 15 5 8 4 4 31 54 48 41 25 15 20 31 15 34 31 18 40 38 28 25 21 32 33 32 19 12 29 50
48 49 50 52 54 56 57 57 54 54 56 55 51 46 37 17 69 52 40 31 20 26 66 61 45 35 16 15 34 18 6 24 45 60 68 61 49 29 38 46 43 27 14 5 9
56 58 60 60 61 62 62 63 59 58 57 57 51 42 32 32 53 9 20 43 55 33 57 68 38 57 13 21 25 14 52 50 50 56 58 38 47 21 41 35 34 40 34 23 5
58 59 60 62 63 64 63 66 64 62 61 60 58 38 49 92 56 30 28 29 35 46 49 65 77 44 34 9 58 50 32 23 32 39 20 41 31 47 47 38 37 37 44 36 34
59 61 62 64 65 68 70 69 68 65 66 70 49 33 44 71 74 82 64 72 51 58 49 42 67 62 25 18 16 19 17 33 18 16 22 24 52 33 41 39 44 39 46 52 48
65 66 67 69 68 69 71 74 69 74 69 51 22 27 38 37 45 35 38 78 55 59 57 42 47 40 32 11 12 9 21 11 14 17 14 21 43 11 31 39 49 50 52 56 61
67 69 71 72 72 73 77 77 79 47 26 10 17 16 42 48 30 29 33 44 39 54 45 49 34 14 23 12 27 16 7 12 16 8 18 23 30 13 47 53 53 63 62 64 70
72 73 74 73 72 69 84 78 30 11 5 25 30 43 60 54 53 58 27 41 44 45 24 38 25 40 41 31 15 17 17 16 9 18 15 25 28 21 36 32 35 51 57 68 64
73 76 77 78 76 77 58 25 45 42 36 50 82 95 116 90 79 79 50 31 34 33 35 15 39 22 21 25 30 19 24 21 14 13 13 23 27 31 28 20 49 58 63 53 53
77 79 80 82 81 56 25 57 42 46 20 54 71 73 67 63 88 95 48 49 35 33 41 41 14 31 31 25 28 25 28 13 19 8 20 10 23 30 21 44 53 62 68 60 56
78 79 79 82 61 29 74 41 51 33 8 21 14 16 22 37 16 69 92 43 38 48 35 33 42 47 27 34 27 32 18 26 37 13 12 12 21 13 21 24 14 34 48 65 59
81 82 82 70 85 57 68 47 26 6 9 14 8 52 18 29 25 20 46 56 38 23 31 39 40 50 41 49 37 23 24 32 35 24 10 36 2 14 7 9 14 17 31 44 52
86 88 88 84 78 69 21 19 11 4 18 13 16 36 44 21 13 40 13 39 19 29 35 42 33 43 53 31 41 27 21 24 27 18 15 28 12 12 9 12 11 13 50 55 47
91 89 82 46 46 37 17 14 5 10 17 10 28 39 40 25 26 7 15 6 7 20 37 33 38 32 24 41 34 41 20 9 10 9 13 20 9 14 8 8 14 18 38 52 43
94 85 36 51 65 52 17 5 15 15 23 40 37 48 20 26 7 7 7 11 19 34 17 32 23 51 40 36 29 31 32 11 14 10 11 8 7 10 11 11 24 25 63 42 37
93 76 28 63 69 39 12 9 6 3 17 33 37 21 5 6 11 5 6 5 9 18 19 23 25 10 44 35 33 27 20 22 8 5 8 3 2 13 24 27 25 31 40 31 48
84 50 50 55 32 12 7 9 12 26 30 23 20 9 15 15 17 10 20 10 8 24 12 7 12 33 31 20 37 34 12 13 5 13 7 1 6 3 16 18 24 33 45 56 55
57 25 51 61 10 24 5 8 14 28 39 11 11 13 19 21 15 13 8 12 20 24 26 4 4 4 6 8 30 14 29 7 13 11 9 6 6 11 10 11 27 27 59 65 70
28 9 47 52 17 7 9 28 30 26 51 5 16 22 8 20 11 11 17 12 14 8 30 17 2 7 10 12 2 5 6 11 14 7 5 10 9 5 9 22 44 41 56 75 77
36 13 38 35 11 13 18 23 22 38 34 10 18 15 22 8 9 5 4 8 29 4 21 19 11 8 6 8 6 7 7 8 11 9 7 12 8 3 19 26 47 58 61 73 73
18 9 18 18 39 13 28 12 30 36 29 41 25 15 24 14 7 7 8 9 19 9 23 3 7 7 13 4 8 9 5 5 10 9 11 7 11 3 12 27 27 55 66 69 74
14 6 9 11 21 27 29 11 38 28 19 22 14 29 24 8 12 5 3 6 13 23 8 2 7 10 7 5 13 7 20 14 9 14 15 15 22 14 15 23 39 62 66 73 69
17 13 12 28 32 19 19 11 29 40 27 18 19 38 27 8 2 11 18 5 5 13 6 5 7 25 8 21 13 4 2 6 7 13 20 29 13 6 26 37 31 42 53 54 56
39 34 22 15 10 15 9 28 42 37 17 37 35 27 23 12 31 41 37 35 12 3 9 8 5 9 10 8 3 2 2 4 12 25 38 27 13 13 28 25 38 53 50 59 60
Wind_Direction_850mb
338 336 334 332 328 324 321 319 315 311 307 304 304 305 305 303 298 291 277 275 268 250 234 216 203 206 221 234 212 209 184 215 215 218 245 272 323 296 319 294 303 305 216 186 160
335 333 332 330 328 325 324 321 319 316 313 310 308 305 304 306 303 291 301 277 256 241 221 209 209 199 205 222 211 195 210 217 198 219 267 274 266 310 316 315 285 253 182 164 162
334 332 330 328 326 324 323 321 318 316 314 312 310 308 306 312 316 295 163 347 259 214 217 219 219 209 211 222 203 213 237 221 229 235 258 268 276 290 262 252 249 359 183 166 173
337 334 332 328 325 323 321 318 317 314 310 308 307 307 307 309 289 187 173 237 37 202 201 205 204 189 190 218 217 235 238 230 250 254 253 251 257 266 274 262 279 315 20 194 190
331 328 327 325 323 323 322 318 316 313 311 307 305 306 305 263 259 265 257 255 264 211 195 198 208 200 193 200 233 245 298 246 244 251 255 264 262 261 258 274 279 283 286 220 190
332 330 328 326 324 323 320 316 315 312 309 306 299 299 276 258 293 270 211 230 238 224 207 206 210 211 213 224 205 235 228 250 256 248 247 248 264 246 257 259 273 279 281 275 258
333 331 328 326 324 322 319 315 313 310 306 303 295 283 257 249 266 262 240 228 229 232 214 215 216 195 220 285 236 231 256 259 244 244 244 256 264 246 259 260 245 268 281 279 273
333 331 329 327 326 324 320 315 310 306 303 292 286 268 255 280 285 266 246 236 231 226 238 242 220 214 241 265 316 204 223 248 264 225 249 201 254 256 253 262 256 249 263 273 268
335 333 330 328 327 323 318 316 312 305 291 281 254 245 271 287 269 294 264 233 225 223 230 228 207 212 233 197 287 250 242 229 266 212 230 193 253 221 236 253 264 260 258 258 263
332 330 328 327 325 324 322 318 318 305 277 225 242 249 262 258 267 324 313 219 190 204 215 210 204 178 219 171 214 229 206 224 212 248 190 238 250 241 236 234 245 255 258 258 254
331 329 326 325 322 322 322 319 342 307 225 250 247 222 275 280 283 285 295 195 199 203 195 195 197 207 211 218 228 224 220 236 220 229 238 245 255 236 251 228 236 242 250 247 250
329 327 326 324 320 323 315 306 319 313 300 274 261 253 257 257 269 260 255 204 193 211 202 220 218 203 206 201 204 212 234 244 288 266 221 249 250 240 233 230 231 234 238 234 237
330 330 328 325 323 322 296 304 330 333 276 291 263 249 253 227 242 252 239 227 204 200 208 215 216 201 202 212 210 220 228 228 239 300 271 270 265 253 248 229 232 234 235 237 229
332 331 329 326 323 301 307 324 321 328 292 280 252 272 221 211 265 256 237 221 219 209 211 226 232 198 202 217 208 229 213 233 252 250 251 165 269 226 211 204 202 221 235 243 233
332 329 331 325 309 299 324 322 334 121 286 267 256 41 111 158 321 357 242 207 223 198 199 208 200 218 211 213 207 232 219 227 242 249 251 273 222 266 144 237 256 252 226 229 213
333 333 332 327 312 326 333 349 22 130 248 278 315 6 5 342 359 339 314 204 220 214 212 219 201 201 226 219 218 218 230 233 247 243 246 250 165 282 190 184 267 274 215 183 185
334 337 337 351 333 350 344 345 85 219 314 268 330 344 340 333 305 54 309 13 250 227 215 214 219 225 203 225 224 213 206 237 218 206 218 230 144 226 234 258 252 188 176 182 185
337 340 14 14 1 341 334 215 231 254 256 313 325 326 309 306 25 15 184 217 217 236 257 214 216 212 218 207 205 214 198 163 187 161 192 203 193 250 238 324 25 208 171 182 189
341 351 17 5 344 332 180 259 232 259 272 322 321 311 326 9 324 148 263 272 272 212 220 191 221 176 217 226 212 219 197 200 153 158 91 243 116 14 28 20 40 63 67 84 140
345 352 15 2 354 347 204 242 326 341 342 323 290 266 285 331 328 187 186 190 248 210 218 283 208 229 241 240 226 209 199 167 289 132 162 297 73 137 20 31 44 58 53 65 88
354 339 4 1 317 55 31 263 273 301 314 266 283 258 258 303 259 253 240 176 196 198 205 267 30 7 47 117 226 221 213 189 127 126 145 131 235 183 141 96 77 64 70 67 75
353 328 358 355 31 359 350 310 316 317 320 337 293 253 289 280 257 232 207 244 181 198 186 205 305 180 205 278 328 186 124 150 167 168 159 152 240 177 149 113 100 77 81 88 85
329 292 350 355 23 347 329 314 335 334 328 354 298 322 2 285 274 250 264 166 145 124 153 164 207 121 49 321 217 205 129 123 117 117 184 139 243 2 120 115 111 107 105 101 104
342 331 332 339 351 322 328 308 343 346 328 338 299 346 337 320 275 270 285 156 172 124 145 29 186 156 180 128 123 132 132 253 153 104 156 168 151 188 92 127 125 116 114 112 114
5 341 334 311 331 323 324 300 337 345 335 344 315 335 331 305 309 281 291 0 162 150 105 293 196 166 114 133 135 147 210 221 179 171 153 181 148 169 158 142 148 139 130 136 136
7 334 298 299 292 317 324 330 328 335 327 322 313 317 321 265 356 307 337 236 183 162 117 220 246 159 105 81 40 166 229 325 184 113 100 128 88 160 118 117 124 136 135 130 127
339 326 301 301 295 311 320 319 318 332 305 313 319 308 318 4 312 294 281 286 292 19 158 218 241 94 124 20 359 193 249 284 134 148 139 142 146 117 125 140 151 142 124 118 117